| time (UTC) | temp F | wind direction | speed MPH | gust MPH | rain 1hr in | rain 24hr in | rain mn in | humidity % | barometer mb |
| 20260505054106 | 67 | 355 | 1.0 | 4.0 | 0.00 | 0.00 | 0.00 | 81 | 1003.8 |
| 20260505053756 | 67 | 355 | 1.0 | 2.0 | 0.00 | 0.00 | 0.00 | 80 | 1003.8 |
| 20260505053040 | 67 | 103 | 1.0 | 2.0 | 0.00 | 0.00 | 0.00 | 80 | 1003.4 |
| 20260505052739 | 67 | 126 | 1.0 | 5.0 | 0.00 | 0.00 | 0.00 | 79 | 1003.1 |
| 20260505052009 | 67 | 144 | 1.0 | 5.0 | 0.00 | 0.00 | 0.00 | 79 | 1003.2 |
| 20260505051503 | 68 | 160 | 1.0 | 2.0 | 0.00 | 0.00 | 0.00 | 79 | 1003.0 |
| 20260505051001 | 68 | 120 | 1.0 | 2.0 | 0.00 | 0.00 | 0.00 | 79 | 1003.0 |
| 20260505050433 | 68 | 90 | 1.0 | 4.0 | 0.00 | 0.00 | 0.00 | 78 | 1003.0 |
| 20260505041758 | 70 | 130 | 5.0 | 12.0 | 0.00 | 0.00 | 0.00 | 75 | 1002.7 |
| 20260505041516 | 71 | 165 | 6.0 | 12.0 | 0.00 | 0.00 | 0.00 | 75 | 1002.7 |
| 20260505041008 | 71 | 132 | 6.0 | 12.0 | 0.00 | 0.00 | 0.00 | 74 | 1002.5 |
| 20260505040248 | 71 | 132 | 4.0 | 11.0 | 0.00 | 0.00 | 0.00 | 74 | 1002.6 |
| 20260505035720 | 71 | 117 | 4.0 | 8.0 | 0.00 | 0.00 | 0.00 | 73 | 1002.8 |
| 20260505035441 | 72 | 128 | 3.0 | 9.0 | 0.00 | 0.00 | 0.00 | 72 | 1003.1 |
| 20260505034652 | 72 | 136 | 3.0 | 11.0 | 0.00 | 0.00 | 0.00 | 72 | 1003.2 |
| 20260505034151 | 72 | 131 | 3.0 | 11.0 | 0.00 | 0.00 | 0.00 | 71 | 1003.3 |
| 20260505033845 | 72 | 96 | 3.0 | 12.0 | 0.00 | 0.00 | 0.00 | 71 | 1003.3 |
| 20260505033123 | 72 | 159 | 5.0 | 15.0 | 0.00 | 0.00 | 0.00 | 71 | 1003.1 |
| 20260505032610 | 72 | 107 | 7.0 | 15.0 | 0.00 | 0.00 | 0.00 | 71 | 1003.1 |
| 20260505032112 | 73 | 123 | 8.0 | 16.0 | 0.00 | 0.00 | 0.00 | 71 | 1003.2 |
| 20260505031546 | 73 | 136 | 9.0 | 16.0 | 0.00 | 0.00 | 0.00 | 70 | 1003.5 |
| 20260505031045 | 73 | 161 | 7.0 | 15.0 | 0.00 | 0.00 | 0.00 | 70 | 1003.6 |
| 20260505030520 | 73 | 127 | 6.0 | 11.0 | 0.00 | 0.00 | 0.00 | 69 | 1003.6 |
| 20260505030017 | 73 | 157 | 6.0 | 11.0 | 0.00 | 0.00 | 0.00 | 69 | 1003.8 |
| 20260505025509 | 73 | 167 | 4.0 | 11.0 | 0.00 | 0.00 | 0.00 | 69 | 1003.6 |
| 20260505025011 | 73 | 165 | 4.0 | 11.0 | 0.00 | 0.00 | 0.00 | 69 | 1003.5 |
| 20260505024447 | 73 | 155 | 2.0 | 11.0 | 0.00 | 0.00 | 0.00 | 68 | 1003.6 |
| 20260505023921 | 73 | 142 | 3.0 | 11.0 | 0.00 | 0.00 | 0.00 | 68 | 1003.5 |
| 20260505023648 | 74 | 130 | 3.0 | 11.0 | 0.00 | 0.00 | 0.00 | 67 | 1003.6 |
| 20260505022921 | 74 | 183 | 2.0 | 9.0 | 0.00 | 0.00 | 0.00 | 67 | 1003.6 |
| 20260505022612 | 74 | 163 | 1.0 | 9.0 | 0.00 | 0.00 | 0.00 | 66 | 1003.7 |
| 20260505021830 | 74 | 158 | 2.0 | 8.0 | 0.00 | 0.00 | 0.00 | 66 | 1003.5 |
| 20260505021307 | 74 | 137 | 2.0 | 8.0 | 0.00 | 0.00 | 0.00 | 66 | 1003.4 |
| 20260505020745 | 74 | 185 | 3.0 | 11.0 | 0.00 | 0.00 | 0.00 | 65 | 1003.2 |
| 20260505020447 | 74 | 169 | 4.0 | 13.0 | 0.00 | 0.00 | 0.00 | 65 | 1003.0 |
| 20260505015934 | 74 | 178 | 6.0 | 13.0 | 0.00 | 0.00 | 0.00 | 64 | 1002.7 |
| 20260505015209 | 74 | 165 | 7.0 | 13.0 | 0.00 | 0.00 | 0.00 | 64 | 1002.6 |
| 20260505014710 | 74 | 163 | 7.0 | 13.0 | 0.00 | 0.00 | 0.00 | 63 | 1002.4 |
| 20260505014209 | 74 | 146 | 7.0 | 14.0 | 0.00 | 0.00 | 0.00 | 63 | 1002.0 |
| 20260505013640 | 75 | 169 | 7.0 | 14.0 | 0.00 | 0.00 | 0.00 | 62 | 1002.2 |
| 20260505013142 | 75 | 135 | 4.0 | 11.0 | 0.00 | 0.00 | 0.00 | 62 | 1002.2 |
| 20260505012621 | 75 | 153 | 4.0 | 11.0 | 0.00 | 0.00 | 0.00 | 61 | 1002.2 |
| 20260505012120 | 75 | 140 | 3.0 | 11.0 | 0.00 | 0.00 | 0.00 | 61 | 1002.3 |
| 20260505011558 | 75 | 164 | 4.0 | 10.0 | 0.00 | 0.00 | 0.00 | 60 | 1002.2 |
| 20260505011033 | 76 | 119 | 5.0 | 12.0 | 0.00 | 0.00 | 0.00 | 59 | 1002.2 |
| 20260505010511 | 76 | 129 | 6.0 | 17.0 | 0.00 | 0.00 | 0.00 | 59 | 1002.2 |
| 20260505010231 | 76 | 143 | 6.0 | 17.0 | 0.00 | 0.00 | 0.00 | 59 | 1002.0 |
| 20260505005510 | 76 | 183 | 6.0 | 13.0 | 0.00 | 0.00 | 0.00 | 58 | 1001.9 |
| 20260505005011 | 76 | 155 | 6.0 | 13.0 | 0.00 | 0.00 | 0.00 | 57 | 1001.9 |
| 20260505004445 | 77 | 144 | 6.0 | 12.0 | 0.00 | 0.00 | 0.00 | 57 | 1001.9 |
| 20260505003940 | 77 | 171 | 6.0 | 13.0 | 0.00 | 0.00 | 0.00 | 56 | 1001.9 |
| 20260505003435 | 77 | 173 | 5.0 | 13.0 | 0.00 | 0.00 | 0.00 | 56 | 1002.0 |
| 20260505002912 | 77 | 206 | 5.0 | 11.0 | 0.00 | 0.00 | 0.00 | 56 | 1002.2 |
| 20260505002346 | 77 | 157 | 6.0 | 15.0 | 0.00 | 0.00 | 0.00 | 55 | 1002.2 |
| 20260505002041 | 78 | 162 | 7.0 | 15.0 | 0.00 | 0.00 | 0.00 | 54 | 1002.3 |
| 20260505001251 | 78 | 187 | 7.0 | 14.0 | 0.00 | 0.00 | 0.00 | 54 | 1002.4 |
| 20260505000748 | 78 | 157 | 8.0 | 15.0 | 0.00 | 0.00 | 0.00 | 54 | 1002.3 |
| 20260505000219 | 78 | 180 | 9.0 | 17.0 | 0.00 | 0.00 | 0.00 | 53 | 1002.4 |
| 20260504235717 | 78 | 167 | 10.0 | 17.0 | 0.00 | 0.00 | 0.00 | 53 | 1002.4 |
| 20260504235213 | 78 | 152 | 10.0 | 18.0 | 0.00 | 0.00 | 0.00 | 53 | 1002.3 |
| 20260504234934 | 78 | 160 | 10.0 | 19.0 | 0.00 | 0.00 | 0.00 | 52 | 1002.5 |
| 20260504234207 | 79 | 184 | 9.0 | 19.0 | 0.00 | 0.00 | 0.00 | 52 | 1002.4 |
| 20260504233705 | 79 | 171 | 9.0 | 13.0 | 0.00 | 0.00 | 0.00 | 52 | 1002.5 |
| 20260504233140 | 79 | 175 | 9.0 | 21.0 | 0.00 | 0.00 | 0.00 | 51 | 1002.5 |
| 20260504232635 | 79 | 155 | 8.0 | 21.0 | 0.00 | 0.00 | 0.00 | 51 | 1002.5 |
| 20260504232134 | 79 | 149 | 9.0 | 17.0 | 0.00 | 0.00 | 0.00 | 50 | 1002.5 |
| 20260504231605 | 79 | 223 | 8.0 | 16.0 | 0.00 | 0.00 | 0.00 | 51 | 1002.6 |
| 20260504231104 | 79 | 250 | 6.0 | 15.0 | 0.00 | 0.00 | 0.00 | 51 | 1002.5 |
| 20260504230535 | 80 | 188 | 7.0 | 16.0 | 0.00 | 0.00 | 0.00 | 51 | 1002.4 |
| 20260504230255 | 80 | 147 | 7.0 | 16.0 | 0.00 | 0.00 | 0.00 | 50 | 1002.5 |
| 20260504225505 | 80 | 207 | 8.0 | 15.0 | 0.00 | 0.00 | 0.00 | 51 | 1002.4 |
| 20260504225004 | 80 | 196 | 10.0 | 18.0 | 0.00 | 0.00 | 0.00 | 50 | 1002.5 |
| 20260504224438 | 80 | 217 | 9.0 | 20.0 | 0.00 | 0.00 | 0.00 | 49 | 1002.4 |
| 20260504223909 | 80 | 212 | 8.0 | 19.0 | 0.00 | 0.00 | 0.00 | 50 | 1002.4 |
| 20260504223409 | 80 | 197 | 8.0 | 18.0 | 0.00 | 0.00 | 0.00 | 50 | 1002.4 |
| 20260504222839 | 80 | 155 | 8.0 | 16.0 | 0.00 | 0.00 | 0.00 | 49 | 1002.4 |
| 20260504222336 | 80 | 190 | 9.0 | 19.0 | 0.00 | 0.00 | 0.00 | 48 | 1002.4 |
| 20260504221834 | 80 | 190 | 9.0 | 20.0 | 0.00 | 0.00 | 0.00 | 48 | 1002.4 |
| 20260504221329 | 80 | 173 | 9.0 | 20.0 | 0.00 | 0.00 | 0.00 | 48 | 1002.4 |
| 20260504220827 | 80 | 152 | 10.0 | 20.0 | 0.00 | 0.00 | 0.00 | 47 | 1002.5 |
| 20260504220524 | 80 | 151 | 11.0 | 20.0 | 0.00 | 0.00 | 0.00 | 47 | 1002.5 |
| 20260504215753 | 81 | 153 | 12.0 | 18.0 | 0.00 | 0.00 | 0.00 | 47 | 1002.5 |
| 20260504215513 | 81 | 215 | 10.0 | 18.0 | 0.00 | 0.00 | 0.00 | 47 | 1002.5 |
| 20260504214723 | 82 | 163 | 10.0 | 22.0 | 0.00 | 0.00 | 0.00 | 47 | 1002.5 |
| 20260504214222 | 82 | 208 | 11.0 | 22.0 | 0.00 | 0.00 | 0.00 | 45 | 1002.5 |
| 20260504213717 | 82 | 165 | 9.0 | 19.0 | 0.00 | 0.00 | 0.00 | 46 | 1002.5 |
| 20260504213215 | 82 | 131 | 8.0 | 16.0 | 0.00 | 0.00 | 0.00 | 46 | 1002.6 |
| 20260504212712 | 82 | 171 | 9.0 | 16.0 | 0.00 | 0.00 | 0.00 | 45 | 1002.6 |
| 20260504212210 | 82 | 167 | 9.0 | 18.0 | 0.00 | 0.00 | 0.00 | 46 | 1002.6 |
| 20260504211657 | 82 | 186 | 9.0 | 18.0 | 0.00 | 0.00 | 0.00 | 45 | 1002.7 |
| 20260504211200 | 83 | 209 | 9.0 | 16.0 | 0.00 | 0.00 | 0.00 | 46 | 1002.7 |
| 20260504210631 | 83 | 169 | 8.0 | 15.0 | 0.00 | 0.00 | 0.00 | 44 | 1002.7 |
| 20260504210109 | 83 | 178 | 8.0 | 16.0 | 0.00 | 0.00 | 0.00 | 46 | 1002.7 |
| 20260504205539 | 83 | 178 | 8.0 | 16.0 | 0.00 | 0.00 | 0.00 | 46 | 1002.8 |
| 20260504205036 | 83 | 232 | 9.0 | 17.0 | 0.00 | 0.00 | 0.00 | 45 | 1002.8 |
| 20260504204536 | 83 | 212 | 10.0 | 17.0 | 0.00 | 0.00 | 0.00 | 45 | 1002.8 |
| 20260504204042 | 83 | 147 | 8.0 | 16.0 | 0.00 | 0.00 | 0.00 | 44 | 1003.0 |
| 20260504203527 | 84 | 232 | 5.0 | 13.0 | 0.00 | 0.00 | 0.00 | 45 | 1003.0 |
| 20260504203253 | 83 | 190 | 5.0 | 12.0 | 0.00 | 0.00 | 0.00 | 44 | 1003.1 |
| 20260504202457 | 83 | 171 | 9.0 | 18.0 | 0.00 | 0.00 | 0.00 | 45 | 1003.2 |
| 20260504201954 | 83 | 223 | 7.0 | 18.0 | 0.00 | 0.00 | 0.00 | 44 | 1003.3 |
| 20260504201451 | 83 | 245 | 5.0 | 13.0 | 0.00 | 0.00 | 0.00 | 47 | 1003.2 |
| 20260504200947 | 82 | 167 | 8.0 | 12.0 | 0.00 | 0.00 | 0.00 | 45 | 1003.5 |
| 20260504200706 | 83 | 163 | 7.0 | 15.0 | 0.00 | 0.00 | 0.00 | 44 | 1003.5 |
| 20260504200204 | 83 | 173 | 8.0 | 15.0 | 0.00 | 0.00 | 0.00 | 46 | 1003.5 |
| 20260504195437 | 82 | 203 | 8.0 | 15.0 | 0.00 | 0.00 | 0.00 | 46 | 1003.5 |
| 20260504194936 | 82 | 145 | 7.0 | 17.0 | 0.00 | 0.00 | 0.00 | 46 | 1003.6 |
| 20260504194410 | 82 | 167 | 7.0 | 17.0 | 0.00 | 0.00 | 0.00 | 46 | 1003.7 |
| 20260504193905 | 82 | 229 | 7.0 | 16.0 | 0.00 | 0.00 | 0.00 | 45 | 1003.9 |
| 20260504193404 | 82 | 238 | 7.0 | 13.0 | 0.00 | 0.00 | 0.00 | 44 | 1003.9 |
| 20260504192921 | 82 | 223 | 6.0 | 14.0 | 0.00 | 0.00 | 0.00 | 44 | 1004.1 |
| 20260504191831 | 82 | 193 | 5.0 | 12.0 | 0.00 | 0.00 | 0.00 | 47 | 1004.1 |
| 20260504191303 | 81 | 192 | 5.0 | 14.0 | 0.00 | 0.00 | 0.00 | 45 | 1004.1 |
| 20260504190803 | 81 | 227 | 7.0 | 18.0 | 0.00 | 0.00 | 0.00 | 45 | 1004.2 |
| 20260504190238 | 81 | 212 | 5.0 | 18.0 | 0.00 | 0.00 | 0.00 | 45 | 1004.3 |
| 20260504185711 | 80 | 204 | 6.0 | 14.0 | 0.00 | 0.00 | 0.00 | 44 | 1004.2 |
| 20260504185146 | 81 | 242 | 7.0 | 14.0 | 0.00 | 0.00 | 0.00 | 45 | 1004.3 |
| 20260504184623 | 80 | 257 | 5.0 | 12.0 | 0.00 | 0.00 | 0.00 | 47 | 1004.3 |
| 20260504184056 | 80 | 225 | 4.0 | 11.0 | 0.00 | 0.00 | 0.00 | 48 | 1004.4 |
| 20260504183555 | 79 | 221 | 6.0 | 14.0 | 0.00 | 0.00 | 0.00 | 47 | 1004.5 |
| 20260504183033 | 79 | 223 | 8.0 | 14.0 | 0.00 | 0.00 | 0.00 | 48 | 1004.4 |
| 20260504182514 | 79 | 235 | 8.0 | 17.0 | 0.00 | 0.00 | 0.00 | 48 | 1004.4 |
| 20260504182011 | 79 | 199 | 8.0 | 17.0 | 0.00 | 0.00 | 0.00 | 47 | 1004.7 |
| 20260504181450 | 79 | 213 | 5.0 | 10.0 | 0.00 | 0.00 | 0.00 | 46 | 1004.7 |
| 20260504180935 | 79 | 211 | 5.0 | 11.0 | 0.00 | 0.00 | 0.00 | 49 | 1004.8 |
| 20260504180434 | 79 | 224 | 5.0 | 10.0 | 0.00 | 0.00 | 0.00 | 48 | 1005.0 |
| 20260504175920 | 78 | 155 | 6.0 | 12.0 | 0.00 | 0.00 | 0.00 | 51 | 1004.8 |
| 20260504175357 | 78 | 216 | 7.0 | 14.0 | 0.00 | 0.00 | 0.00 | 49 | 1004.8 |
| 20260504174832 | 78 | 254 | 7.0 | 14.0 | 0.00 | 0.00 | 0.00 | 48 | 1004.9 |
| 20260504174333 | 77 | 221 | 9.0 | 16.0 | 0.00 | 0.00 | 0.00 | 49 | 1005.0 |
| 20260504174035 | 77 | 216 | 8.0 | 16.0 | 0.00 | 0.00 | 0.00 | 48 | 1005.1 |
| 20260504173311 | 77 | 231 | 7.0 | 15.0 | 0.00 | 0.00 | 0.00 | 51 | 1005.2 |
| 20260504172809 | 76 | 218 | 9.0 | 15.0 | 0.00 | 0.00 | 0.00 | 49 | 1005.1 |
| 20260504172308 | 76 | 227 | 8.0 | 15.0 | 0.00 | 0.00 | 0.00 | 51 | 1005.1 |
| 20260504171807 | 76 | 196 | 7.0 | 13.0 | 0.00 | 0.00 | 0.00 | 51 | 1005.0 |
| 20260504171306 | 75 | 154 | 8.0 | 15.0 | 0.00 | 0.00 | 0.00 | 50 | 1005.0 |
| 20260504170809 | 75 | 211 | 7.0 | 15.0 | 0.00 | 0.00 | 0.00 | 51 | 1005.2 |
| 20260504170245 | 75 | 195 | 8.0 | 16.0 | 0.00 | 0.00 | 0.00 | 53 | 1005.4 |
| 20260504160411 | 72 | 228 | 11.0 | 19.0 | 0.00 | 0.00 | 0.00 | 53 | 1005.1 |
| 20260504151012 | 70 | 236 | 13.0 | 23.0 | 0.00 | 0.00 | 0.00 | 56 | 1005.1 |
| 20260504150255 | 70 | 227 | 14.0 | 25.0 | 0.00 | 0.00 | 0.00 | 56 | 1005.2 |
| 20260504141044 | 68 | 222 | 11.0 | 21.0 | 0.00 | 0.00 | 0.00 | 59 | 1005.5 |
| 20260504140542 | 67 | 200 | 10.0 | 17.0 | 0.00 | 0.00 | 0.00 | 59 | 1005.5 |
| 20260504130806 | 65 | 213 | 10.0 | 18.0 | 0.00 | 0.00 | 0.00 | 61 | 1005.5 |
| 20260504130247 | 64 | 227 | 10.0 | 18.0 | 0.00 | 0.00 | 0.00 | 61 | 1005.5 |
| 20260504110714 | 64 | 221 | 10.0 | 17.0 | 0.00 | 0.00 | 0.00 | 59 | 1005.6 |
| 20260504110212 | 64 | 209 | 10.0 | 17.0 | 0.00 | 0.00 | 0.00 | 58 | 1005.6 |
| 20260504081625 | 67 | 198 | 13.0 | 23.0 | 0.00 | 0.00 | 0.00 | 50 | 1006.8 |
| 20260504081053 | 67 | 198 | 13.0 | 23.0 | 0.00 | 0.00 | 0.00 | 50 | 1006.8 |
| 20260504080543 | 67 | 208 | 12.0 | 21.0 | 0.00 | 0.00 | 0.00 | 50 | 1006.9 |
| 20260504070214 | 68 | 193 | 12.0 | 19.0 | 0.00 | 0.00 | 0.00 | 49 | 1007.8 |